#timestamp,LO_Frequency,Hit,StdDev 
1516669215.9,286047003.7,N
1516669235.7,286047003.1,N
1516669255.5,286047006.0,N
1516669275.4,286047007.5,N
1516669295.2,286047005.1,N
1516669315.1,286047005.7,N
1516669316.0,286047005.7,N
1516669335.8,286047005.8,N
1516669355.6,286047004.2,N
1516669375.5,286047003.7,N
1516669395.3,286047002.9,N
1516669415.1,286047005.4,N
1516669435.9,286047001.3,N
1516669455.7,286047003.8,N
1516669475.6,286047004.2,N
1516669495.4,286047003.9,N
1516669515.2,286047000.8,N
1516669535.1,286046998.9,N
1516669536.0,286046998.9,N
1516669555.8,286046999.0,N
1516669575.6,286047000.0,N
1516669595.5,286047000.2,N
1516669615.3,286047002.7,N
1516669635.2,286047002.8,N
1516669655.9,286047001.7,N
1516669675.7,286047002.7,N
1516669695.6,286046998.4,N
1516669715.4,286046999.3,N
1516669735.2,286046995.4,N
1516669755.1,286046995.1,N
1516669756.0,286046995.1,N
1516669775.8,286046997.3,N
1516669795.7,286046997.5,N
1516669815.5,286046999.5,N
1516669835.3,286046996.7,N
1516669855.2,286046996.7,N
1516669875.0,286046996.1,N
1516669875.9,286046996.1,N
1516669895.7,286046993.4,N
1516669915.6,286046992.4,N
1516669935.4,286046993.5,N
1516669955.3,286046995.1,N
1516669975.1,286046996.0,N
1516669976.0,286046996.0,N
1516669995.8,286046993.7,N
1516670015.7,286046994.4,N
1516670035.5,286046993.0,N
1516670055.4,286046992.7,N
1516670075.2,286046990.6,Y
1516670095.0,286046992.3,P
1516670095.9,286046992.3,P
1516670115.8,286046991.8,P
1516670135.6,286046992.5,Y
1516670155.4,286046996.5,P
1516670175.3,286046999.5,N
1516670195.1,286046999.2,N
1516670215.9,286046997.1,N
1516670235.7,286046996.5,N
1516670255.5,286046998.2,N
1516670275.4,286046998.9,N
1516670295.2,286046998.2,N
1516670315.1,286046998.7,N
1516670316.0,286046998.7,N
1516670335.8,286046999.3,N
1516670355.6,286046999.2,N
1516670375.5,286046999.6,N
1516670395.3,286046998.2,N
1516670415.1,286047002.8,N
1516670435.9,286046999.8,N
1516670455.7,286047000.4,N
1516670475.6,286047000.4,N
1516670495.4,286047000.0,N
1516670515.2,286047004.0,N
1516670535.1,286047003.8,N
1516670536.0,286047003.8,N
1516670555.8,286047001.7,N
1516670575.6,286047002.8,N
1516670595.5,286047000.1,N
1516670615.3,286047002.3,N
1516670635.2,286047002.7,N
1516670655.9,286047002.7,N
1516670675.7,286047000.1,N
1516670695.6,286046999.9,N
1516670715.4,286047002.3,N
1516670735.2,286047000.4,N
1516670755.1,286046999.2,N
1516670756.0,286046999.2,N
1516670775.8,286046998.6,N
1516670795.7,286047000.4,N
1516670815.5,286047002.0,N
1516670835.3,286047002.3,N
1516670855.2,286047000.9,N
1516670875.0,286047000.7,N
1516670875.9,286047000.7,N
1516670895.8,286047002.1,N
1516670915.6,286047002.3,N
1516670935.4,286047002.7,N
1516670955.3,286047000.4,N
1516670975.1,286046999.9,N
1516670995.8,286046999.2,N
1516671015.7,286046997.7,N
1516671035.5,286046997.8,N
1516671055.4,286046996.7,N
1516671075.2,286046998.1,N
1516671095.0,286046998.8,N
1516671095.9,286046998.8,N
1516671115.8,286046999.5,N
1516671135.6,286046996.6,N
1516671155.4,286046997.8,N
1516671175.3,286046997.0,N
1516671195.1,286046997.0,N
1516671215.9,286047001.1,N
1516671235.7,286047002.6,N
1516671255.5,286047001.9,N
1516671305.4,286047002.3,E
1516671315.3,286046999.9,N
1516671335.2,286047000.7,P
1516671355.9,286047002.4,P
1516671375.7,286047002.0,N
1516671395.6,286047002.8,N
1516671415.4,286047002.4,N
1516671435.2,286047001.5,N
1516671455.1,286047004.0,Y
1516671456.0,286047004.0,P
1516671475.8,286046999.7,N
1516671495.7,286047002.8,N
1516671515.5,286046999.9,N
1516671535.3,286047000.0,N
1516671555.2,286047002.2,N
1516671575.0,286047001.7,N
1516671575.9,286047001.7,N
1516671595.8,286047001.6,N
1516671615.6,286047001.7,N
1516671635.4,286047002.4,N
1516671655.3,286047002.7,N
1516671675.1,286047000.1,N
1516671695.8,286047002.8,N
1516671715.7,286047000.0,N
1516671735.5,286047000.9,N
1516671755.4,286046997.0,N
1516671775.2,286046998.4,N
1516671795.0,286046998.1,N
1516671795.9,286046998.1,N
1516671815.8,286047000.9,N
1516671835.6,286046999.8,N
1516671855.4,286047002.5,N
1516671875.3,286047002.8,N
1516671895.1,286046999.9,N
1516671915.9,286047000.4,N
1516671935.7,286047000.6,N
1516671955.5,286047002.2,N
1516671975.4,286047001.6,N
1516671995.2,286047002.0,N
1516672015.0,286047003.8,N
1516672015.9,286047003.8,N
1516672035.8,286046999.7,N
1516672055.6,286047000.1,N
1516672075.5,286047002.4,N
1516672095.3,286047002.3,N
1516672115.1,286047002.3,N
1516672135.9,286047002.4,N
1516672155.7,286047002.4,N
1516672175.5,286047000.1,N
1516672195.4,286046998.9,N
1516672215.2,286046999.0,N
1516672235.1,286046998.3,N
1516672236.0,286046998.3,N
1516672255.8,286046999.4,N
1516672275.6,286046998.6,N
1516672295.5,286046999.1,N
1516672315.3,286047000.7,N
1516672335.1,286047000.7,N
1516672355.9,286047000.3,N
1516672375.7,286046999.4,N
1516672395.6,286046999.1,N
1516672415.4,286046996.7,N
1516672435.2,286046997.4,N
1516672455.1,286046998.3,N
1516672456.0,286046998.3,N
1516672475.8,286046996.6,N
1516672495.7,286046997.8,N
1516672515.5,286046995.8,N
1516672535.3,286046995.6,N
1516672555.2,286046996.2,N
1516672575.0,286046993.4,Y
1516672575.9,286046993.4,P
1516672595.8,286046993.9,N
1516672615.6,286046993.8,N
1516672635.4,286046995.9,N
1516672655.3,286046994.0,N
1516672675.1,286046993.8,Y
1516672695.8,286047000.4,P
1516672715.7,286047002.5,N
1516672735.5,286046999.7,N
1516672755.4,286047000.1,N
1516672775.2,286047000.9,N
1516672795.0,286046999.8,N
1516672795.9,286046999.8,N
